Starlink 32310

operational
NORAD ID: 61662 Int'l Des: 2024-193 Owner: SPXS Country: US Constellation: starlink
LEOCIRCULAR

Starlink 32310について

説明を読み込み中...

リアルタイム位置

3D地球を読み込み中...

次回通過

高度履歴

Altitude vs Time

uPlot chart will show altitude changes over time

軌道要素

1 61662U 24193B 25351.56697574 -.00001733 00000-0 -46422-4 0 9993
2 61662 53.1612 112.4344 0000766 71.5483 288.5601 15.30193798 63956
Epoch: Dec 17, 2025 • Age: 19 hours

現在のステータス

高度 482.1 km
速度 7.62 km/s
衛星直下点 -23.54°S, 121.64°W
打ち上げ日 Oct 26, 2024
運用期間 1.1 years
タイプ internet

技術仕様

分類 Payload
質量 730.00 kg
乾燥質量 700.00 kg
総質量 730.00 kg
長さ 0.30 m
直径 4.10 m
スパン 29.00 m
形状 Box + pan
製造者 SPXS
バスタイプ Starlink V2M
フェーズステータス In Orbit
所有者/国 SPXS/US

大規模コンステレーション

Loading constellations...